Wind_Speed
9 9 7 1 3 2 1 3 3 4 6 11 16 6 12 6 4 3 23 21 25 24 21 18 15 15 14 14 13 14 15 16 18 17 16 16 16 16 16 16 17 18 18 17 17 19 19 21 20
13 12 3 1 3 1 1 2 7 7 12 22 12 13 12 4 7 14 17 25 26 24 22 18 17 17 15 16 15 15 14 14 16 16 16 16 16 16 16 17 17 17 17 16 17 18 18 18 16
13 6 2 1 2 3 3 5 2 15 16 13 8 10 6 8 17 16 26 28 28 24 21 18 17 17 16 15 14 14 15 14 15 15 15 15 15 17 16 16 17 17 16 15 15 17 16 16 15
8 3 0 2 3 4 4 3 2 15 14 11 17 12 9 13 13 21 32 31 28 25 21 19 18 16 15 14 14 14 15 15 15 15 15 15 15 16 16 15 16 15 15 14 15 17 16 17 17
3 2 2 2 2 3 2 4 9 4 8 15 20 11 8 14 27 36 34 30 30 27 22 20 17 16 15 15 16 15 15 15 15 15 15 15 15 15 16 15 13 14 13 14 15 19 17 16 17
1 1 3 4 3 2 4 4 12 11 16 18 22 17 5 30 35 31 35 32 30 29 22 21 17 16 16 15 15 15 15 15 15 15 14 15 15 15 15 15 14 12 12 12 14 17 15 16 18
2 0 4 8 7 3 4 2 17 17 23 12 20 17 11 25 31 32 33 32 30 27 22 21 18 15 15 15 15 15 14 14 14 14 14 14 15 14 15 15 13 12 10 11 14 16 16 13 14
3 1 1 2 10 3 7 2 11 17 15 21 24 10 18 25 31 32 32 30 28 25 23 20 18 16 15 15 14 15 14 14 13 14 13 14 14 14 14 15 13 11 10 11 14 15 16 13 12
3 1 2 6 8 6 7 8 3 10 20 16 4 18 28 32 35 31 27 26 24 22 21 21 18 16 15 16 15 15 15 15 14 13 13 14 15 15 16 15 12 11 12 12 12 13 14 13 12
3 1 4 2 13 11 9 7 5 13 18 17 21 22 31 35 31 30 24 22 23 24 22 21 19 17 16 17 17 18 18 17 17 17 17 14 13 14 16 14 13 11 11 12 11 10 9 7 5
5 4 6 6 12 12 8 7 3 13 7 22 28 24 27 33 29 27 27 26 28 26 24 21 18 17 16 18 21 20 18 16 14 15 13 12 11 13 15 14 11 13 13 10 8 8 2 1 3
4 6 6 6 13 11 12 7 5 6 9 20 25 26 25 20 23 26 25 26 24 26 24 24 20 16 14 19 18 17 15 14 13 14 12 14 10 11 12 11 7 4 2 2 3 3 4 3 3
2 7 8 11 9 11 12 7 6 10 9 22 25 24 21 19 22 26 26 30 32 27 26 26 23 16 15 15 14 15 13 10 14 12 14 15 11 13 9 7 5 6 3 3 4 5 3 4 7
8 9 10 10 10 7 12 7 3 4 5 19 23 20 18 18 19 23 26 27 27 29 27 27 24 15 17 15 15 15 11 14 16 19 16 13 12 11 7 6 4 5 2 5 2 3 1 4 9
11 7 7 9 9 6 12 5 9 8 2 19 19 15 14 14 23 30 31 28 30 29 29 25 23 19 18 16 16 13 9 16 15 15 14 11 13 11 12 9 8 6 3 2 2 2 3 3 5
5 4 9 9 9 10 5 2 4 3 5 7 16 16 13 18 26 29 31 29 31 32 28 28 22 15 17 22 18 12 16 14 15 17 13 11 9 11 6 10 7 7 4 3 4 2 2 1 3
2 4 4 9 16 10 3 8 14 9 7 10 12 12 9 20 25 31 29 29 34 35 31 26 23 19 20 19 17 18 19 17 15 17 12 11 9 8 5 9 8 2 5 5 4 1 0 4 5
3 2 4 8 11 4 4 5 15 15 12 15 14 12 11 16 18 30 32 31 37 34 30 27 25 19 17 19 20 19 19 16 16 14 11 12 9 6 3 7 7 0 8 5 3 1 1 3 1
2 5 10 4 12 7 3 8 7 14 12 12 11 13 10 18 24 32 34 35 31 34 33 29 25 21 17 16 21 18 18 16 18 15 12 12 12 9 7 8 6 3 5 5 1 1 4 1 3
3 5 2 15 12 8 10 3 1 8 16 15 16 10 13 12 19 28 31 30 33 35 33 29 26 23 18 14 17 15 14 17 17 14 13 10 12 9 9 7 8 6 6 4 2 1 2 0 4
5 6 6 6 9 8 11 10 8 4 4 6 5 4 12 18 19 17 29 30 32 35 37 33 27 24 22 17 15 12 11 14 13 15 13 10 10 10 11 9 8 6 7 4 1 3 3 4 5
5 12 8 17 7 5 11 5 4 7 11 12 11 7 4 10 15 19 26 28 31 37 36 32 31 27 23 19 16 11 16 19 18 19 13 11 9 12 8 10 8 8 9 6 3 1 3 3 11
11 12 10 17 5 6 10 3 4 7 8 12 10 10 7 5 6 10 25 31 34 36 36 34 33 30 26 21 17 12 13 21 21 16 16 14 12 11 10 10 12 8 10 9 5 2 1 4 7
14 4 2 7 5 1 8 5 4 12 18 12 8 9 12 7 3 5 6 22 28 30 33 35 34 30 25 22 16 10 12 18 15 21 18 15 13 11 11 10 11 8 8 7 7 4 1 2 3
5 6 1 2 2 6 7 8 8 17 17 21 25 19 16 15 9 8 4 16 22 25 28 33 34 31 26 24 18 12 11 12 9 16 20 18 16 14 12 13 13 9 8 8 8 7 5 4 4
6 8 6 5 3 2 6 6 2 7 8 7 12 11 7 13 11 8 11 8 13 22 32 31 35 32 27 27 23 17 15 12 11 15 17 17 16 15 15 15 14 11 9 9 10 9 7 6 6
7 3 9 6 2 4 3 4 4 8 4 6 7 6 6 10 8 9 14 8 3 11 22 33 36 34 30 30 27 21 18 17 13 15 12 16 17 14 19 17 16 13 12 12 10 9 7 6 5
8 6 2 3 6 4 3 5 4 3 6 6 6 7 5 3 2 2 12 11 4 2 14 24 33 35 33 30 31 27 23 21 19 16 14 16 18 15 15 13 17 14 15 13 12 11 9 8 10
1 3 4 4 5 6 4 1 3 9 10 9 8 6 6 5 4 6 8 12 12 10 5 11 20 20 25 29 30 29 27 25 22 20 16 16 20 19 18 14 15 16 15 15 15 12 10 9 9
5 8 7 5 5 3 4 2 5 8 10 10 7 7 6 5 6 5 18 19 18 17 12 13 3 20 14 21 26 29 29 26 25 26 24 17 19 17 18 15 16 18 16 16 17 16 13 11 13
Wind_Direction
171 150 142 172 53 29 335 137 273 251 130 152 156 140 174 90 153 173 141 144 147 147 147 142 142 132 125 121 119 117 117 121 113 113 117 114 111 112 111 107 103 105 107 104 105 108 107 105 106
161 147 188 44 96 283 292 200 151 106 106 114 131 112 96 112 90 122 122 149 147 143 145 147 141 130 126 121 117 113 119 111 120 120 118 116 114 111 112 112 112 109 111 111 111 111 110 109 107
163 176 109 121 59 205 150 191 213 132 132 130 117 80 81 109 111 145 142 148 143 142 144 138 134 137 123 123 124 119 117 121 121 121 115 114 114 115 114 114 117 115 113 116 117 120 115 105 98
169 195 322 160 166 223 230 156 221 108 96 81 108 77 91 125 124 139 146 145 146 146 143 141 134 133 129 125 123 121 121 119 117 118 117 117 116 115 113 115 114 112 113 116 118 123 119 106 101
257 48 193 134 133 253 219 166 161 114 74 102 114 115 99 114 137 141 145 151 148 148 142 141 139 137 133 129 129 123 121 121 120 120 121 118 116 117 115 119 123 121 119 120 126 133 125 107 111
297 131 177 129 178 181 281 225 152 107 117 107 105 118 101 134 139 144 151 152 150 147 144 143 143 143 139 136 131 127 125 123 120 118 119 118 120 119 123 123 128 127 119 127 135 136 126 112 112
245 303 319 110 174 148 165 283 125 118 126 126 127 113 135 144 143 144 149 150 149 146 144 147 146 144 141 138 131 127 125 122 118 120 126 124 121 123 124 127 124 118 120 124 134 138 131 126 114
160 59 221 123 163 108 152 91 125 136 114 117 124 142 150 144 142 143 146 145 147 150 148 148 147 149 145 136 131 131 131 125 127 131 130 126 126 129 127 127 124 121 118 122 130 137 143 137 127
48 309 191 153 154 143 231 130 79 123 127 140 131 138 141 141 141 134 134 143 149 153 156 153 152 151 150 142 137 137 132 129 134 136 135 136 135 130 127 125 123 112 103 109 121 136 150 146 128
113 288 226 221 159 180 172 133 109 141 147 123 119 132 141 142 142 142 146 153 159 165 162 157 155 155 154 146 146 139 139 135 132 132 133 130 134 127 127 124 122 116 113 111 115 131 143 133 148
149 217 219 244 158 164 141 114 77 138 160 145 145 148 150 152 149 150 159 162 168 163 161 160 157 154 154 152 145 142 141 140 139 138 136 140 140 139 134 130 125 105 107 120 105 100 150 108 153
124 284 244 172 157 149 150 112 98 198 171 144 142 152 154 156 163 156 154 153 161 174 165 163 154 153 158 155 157 153 154 146 135 141 149 148 144 148 137 140 142 114 90 120 73 21 8 342 197
183 190 230 132 155 138 133 106 120 118 145 141 149 151 163 163 153 163 158 158 164 168 168 164 161 160 162 159 167 164 154 152 153 159 151 149 144 148 145 150 122 153 86 78 102 92 49 41 116
155 139 139 162 135 134 123 128 90 259 117 140 157 164 171 162 149 147 151 158 160 166 168 168 169 172 163 163 169 164 151 144 146 154 162 179 180 150 163 166 192 216 136 120 114 132 89 89 123
158 144 145 175 152 128 107 94 143 158 74 154 162 169 176 164 150 155 156 159 165 167 166 172 177 178 183 177 175 169 174 159 144 155 161 158 154 163 166 155 121 147 143 139 93 35 112 92 132
121 95 157 201 168 164 91 116 85 247 163 196 170 175 179 166 150 156 159 157 170 167 167 156 162 153 179 196 197 194 174 160 151 142 154 158 146 169 152 166 171 170 184 140 120 116 79 192 198
248 173 163 175 194 148 185 156 218 193 216 192 183 178 145 159 151 160 162 159 168 166 162 160 158 146 139 156 173 178 181 177 161 156 157 160 152 148 168 169 157 162 160 168 158 156 167 201 246
215 166 152 191 181 151 106 181 170 201 205 199 184 189 143 155 157 157 157 163 166 164 167 165 162 162 150 150 156 152 161 168 181 183 170 180 168 164 156 176 169 143 166 169 145 279 216 279 284
285 319 286 33 120 65 19 96 198 182 200 229 192 187 158 160 149 157 163 161 165 167 163 163 165 166 168 153 157 157 163 174 193 189 187 174 170 179 189 174 193 193 158 151 198 103 353 43 250
284 272 36 83 100 86 32 341 277 230 209 205 188 186 168 140 146 151 164 161 166 169 169 169 164 166 175 174 177 180 187 185 186 192 198 200 186 184 198 190 163 180 178 140 68 19 5 9 6
261 232 241 130 100 43 84 314 269 223 167 198 212 140 176 159 159 150 159 165 164 170 174 172 169 177 178 187 197 205 200 194 200 203 202 202 192 205 198 202 201 188 189 176 126 17 21 26 19
281 246 244 143 150 179 161 218 266 197 200 188 174 122 76 163 162 156 160 165 167 172 177 178 176 181 189 190 194 207 206 204 202 200 201 199 192 183 205 207 212 212 208 200 177 274 47 67 42
239 262 247 177 132 132 205 133 267 147 212 202 209 144 139 117 74 173 169 171 177 174 179 180 182 185 193 197 205 225 220 198 205 210 201 200 203 202 206 224 216 212 214 219 204 157 61 69 60
250 256 129 115 110 10 200 146 204 194 202 174 200 184 163 166 147 108 173 188 178 177 180 182 185 191 197 195 203 219 192 188 201 214 214 199 208 212 197 209 214 210 210 195 189 172 251 318 32
179 92 310 58 120 212 134 173 233 204 183 192 187 194 172 170 171 183 114 182 182 175 177 185 188 193 200 200 201 206 204 190 204 202 201 204 203 198 203 204 217 231 227 210 208 220 235 275 301
203 156 154 172 184 225 49 208 309 197 187 176 193 194 164 174 186 176 134 71 173 184 181 186 191 196 201 204 209 207 203 197 199 199 199 222 221 214 208 213 215 230 229 221 227 237 249 249 276
253 132 189 138 89 98 164 330 317 35 53 101 107 112 164 196 208 198 124 145 71 196 199 188 195 199 202 205 209 215 214 212 210 206 218 218 221 229 218 212 217 224 226 216 222 232 233 244 288
168 180 126 345 141 233 247 148 232 117 49 101 82 80 57 43 273 225 131 153 197 315 201 205 202 203 205 206 210 214 219 217 219 222 226 231 215 220 216 213 209 211 219 225 227 233 238 244 254
348 123 77 134 131 172 164 248 287 133 103 90 69 65 59 33 331 229 142 130 132 112 84 200 213 215 210 213 211 215 220 223 228 235 229 231 230 226 212 215 216 210 211 219 230 239 238 248 267
168 176 141 126 248 111 102 108 102 110 119 108 84 70 43 35 23 81 139 136 135 133 90 67 161 218 210 220 223 219 219 223 228 230 227 226 219 220 228 241 225 227 225 227 231 237 243 251 262
Height
795 797 797 799 814 816 819 819 802 795 786 780 786 792 798 799 814 833 817 821 824 827 830 833 834 835 835 837 838 838 838 839 840 841 842 842 842 843 844 845 845 845 845 846 848 848 849 849 849
793 795 797 800 819 830 823 805 798 787 779 780 788 793 798 813 805 814 819 824 826 829 832 834 835 836 836 837 838 839 839 840 840 842 843 844 845 847 847 847 848 848 849 850 851 852 852 852 852
793 795 801 808 816 823 818 802 798 785 777 779 793 794 801 813 811 816 819 823 827 830 833 835 836 837 838 839 839 840 841 842 843 843 844 845 847 847 848 849 849 850 851 852 852 853 853 854 855
793 796 798 813 817 809 803 796 788 785 782 777 784 807 805 810 812 816 820 825 828 832 835 837 838 839 840 841 843 844 844 844 844 845 846 847 848 849 849 850 851 852 852 853 854 855 855 855 856
793 797 811 813 815 805 796 793 782 787 785 786 785 810 811 814 816 819 823 827 829 833 836 838 840 841 843 843 844 846 847 846 846 847 848 849 851 851 852 853 854 854 854 855 856 856 857 859 859
798 799 813 814 812 804 796 785 786 789 788 793 797 806 816 816 819 823 825 829 832 834 837 839 841 843 844 846 847 847 847 847 848 849 850 851 852 853 853 854 855 856 857 858 858 860 860 862 862
803 795 803 808 809 808 798 783 783 789 791 797 794 813 820 820 822 825 828 831 834 836 839 841 843 845 845 846 848 848 848 849 850 851 852 853 854 854 855 856 857 858 859 860 860 862 862 863 864
792 799 804 798 809 806 789 785 781 785 795 790 793 818 823 821 824 828 831 835 837 839 839 842 844 846 846 847 848 849 849 851 851 852 854 856 857 857 858 858 859 860 860 861 862 863 864 865 866
785 805 811 803 806 805 790 789 786 784 787 793 793 803 811 820 825 830 835 838 840 842 842 843 844 846 847 848 850 850 851 852 853 854 856 857 857 858 860 860 861 861 861 862 864 864 865 866 867
795 806 803 786 788 794 787 788 789 794 795 799 805 811 816 820 825 829 834 837 840 841 843 844 845 847 848 850 851 852 853 854 855 856 858 858 859 861 863 863 863 863 863 864 865 866 867 868 869
798 794 792 786 777 780 788 792 790 798 806 798 806 811 814 817 823 827 831 834 837 841 844 846 847 849 851 853 854 854 856 857 858 859 860 860 861 863 864 864 864 866 866 866 867 867 868 869 869
793 785 782 781 774 782 789 788 797 796 796 793 800 808 812 816 820 825 831 834 839 842 845 847 849 852 853 855 856 857 858 860 860 861 862 862 863 864 866 867 866 866 867 867 869 868 867 867 868
785 784 774 778 777 780 782 793 797 798 793 798 803 809 813 814 821 824 829 833 837 841 845 847 850 853 854 857 858 859 860 862 863 863 865 866 865 865 867 869 869 868 868 868 869 870 869 868 869
778 777 778 782 786 790 791 799 796 802 795 800 805 808 812 813 819 825 831 835 838 842 845 848 851 854 856 857 859 862 863 864 864 865 866 868 868 868 868 869 870 870 869 869 870 871 871 870 871
761 789 791 786 785 790 789 809 808 797 801 802 807 809 812 817 819 821 827 833 838 841 844 849 852 854 857 858 860 862 864 865 866 866 867 868 868 870 871 871 871 871 871 871 871 872 872 872 872
776 781 808 793 789 792 795 828 808 801 804 805 803 808 812 815 818 826 830 832 837 841 844 848 852 853 854 858 861 863 865 867 868 868 869 870 870 871 872 873 873 872 872 872 873 872 873 873 874
778 805 798 804 782 791 800 825 810 805 809 805 802 802 808 812 817 824 830 833 836 840 844 848 852 855 856 859 860 862 865 867 869 870 871 872 872 873 873 873 873 873 873 874 873 873 874 874 874
802 797 794 797 795 796 809 810 806 805 805 805 800 801 807 811 816 821 827 833 837 840 844 847 851 855 859 860 862 863 866 868 869 870 871 872 873 873 874 874 874 874 873 875 875 875 875 875 874
786 794 792 791 792 811 818 812 815 807 811 813 804 801 807 810 813 820 828 832 838 840 842 847 850 854 857 860 863 864 865 867 868 869 870 871 873 874 874 874 875 875 876 876 876 876 874 873 874
785 791 796 799 805 810 822 824 814 812 810 802 801 802 804 810 813 820 828 832 834 838 841 846 849 854 857 861 864 865 866 867 868 869 871 872 872 874 875 875 875 876 876 877 877 876 875 874 874
788 791 791 791 813 818 826 836 819 803 810 808 801 802 800 804 811 818 824 828 832 835 839 843 848 852 856 860 864 866 868 869 869 870 870 871 872 873 874 875 876 876 876 877 878 877 876 876 875
801 767 773 797 804 833 827 847 821 809 808 807 803 806 805 802 808 813 819 825 828 831 836 840 845 851 855 858 862 864 864 866 868 869 871 871 872 873 873 874 874 875 876 877 878 878 877 876 876
781 758 767 778 800 816 824 823 817 812 812 810 804 806 803 806 811 816 816 819 824 829 833 838 843 848 853 857 860 863 863 864 867 869 871 872 873 873 873 874 874 875 876 877 878 878 878 877 877
752 762 764 780 808 831 812 823 827 813 795 798 802 802 802 805 810 816 820 823 823 828 832 836 842 846 851 856 860 862 862 864 866 867 869 871 872 873 873 874 875 875 876 876 878 878 878 879 878
762 785 819 825 834 832 793 820 800 788 783 779 778 788 797 799 807 815 818 821 826 829 831 836 840 844 849 854 858 861 863 864 864 864 867 869 870 871 873 874 874 874 875 876 877 878 878 878 878
767 776 818 827 828 804 795 820 800 776 776 777 782 784 794 798 804 807 817 820 825 828 829 833 837 842 846 850 855 859 860 862 864 864 866 867 869 870 871 873 873 874 874 875 876 876 877 877 878
762 781 767 794 780 813 814 809 789 784 786 788 794 794 799 804 808 809 816 820 825 827 831 830 834 839 842 847 852 856 858 860 861 863 864 865 867 868 869 869 870 872 873 874 875 875 876 876 876
749 748 783 798 813 819 819 817 815 801 798 797 802 808 810 808 810 814 817 818 823 827 830 834 833 835 839 844 849 853 854 857 859 862 863 863 864 865 866 866 868 869 870 872 873 873 873 874 874
758 764 773 779 797 811 822 823 800 803 803 806 808 811 812 812 811 810 813 816 825 828 829 832 837 839 841 844 847 850 852 854 856 859 861 862 863 864 865 866 866 867 867 869 870 871 872 872 872
740 754 766 799 794 801 806 822 804 806 803 804 810 812 813 814 811 808 811 818 822 824 826 830 836 840 841 843 848 848 849 852 853 854 858 859 860 861 863 865 865 866 867 868 869 870 870 870 871